Zurück zum Katalog

SATCOM 3 DEB

LostHEO
NORAD 38686·DEBRIS·🇺🇸 United States

Gestartet Dec 7, 1979 von Cape Canaveral Space Force Station

Loading…

Nächste Überflüge (nächste 24 Stunden)

TLE

VeraltetSource: Space-Track

Epoche: Oct 22, 2023, 03:15 UTC

1 38686U 79101V   23295.13563422 -.00000011  00000-0  00000-0 0  9999
2 38686   7.0516 194.2604 4868249 260.7310  43.3782  1.82218880 75353

Verfolge SATCOM 3 DEB in Echtzeit mit AllMySat

Download on the App Store